Greenwich Weather Center

Moon Phase Calendar



Online Cameras

 


      

Current Conditions in Greenwich
9/20/2021 4:00:34 PM

74°F
Feels Like 74
Clear
Humidity
54%
Pressure
30.33"
Wind
9.9 mph (E)
Dew Point
56°F
UV Index
2/10 (Low)
Visibility
6 mi

Hourly Forecast

Date & Time Mon, Sep 20
4:00 PM
Mon, Sep 20
5:00 PM
Mon, Sep 20
6:00 PM
Mon, Sep 20
7:00 PM
Mon, Sep 20
8:00 PM
Mon, Sep 20
9:00 PM
Mon, Sep 20
10:00 PM
Mon, Sep 20
11:00 PM
Tue, Sep 21
12:00 AM
Tue, Sep 21
1:00 AM
Tue, Sep 21
2:00 AM
Tue, Sep 21
3:00 AM
Tue, Sep 21
4:00 AM
Tue, Sep 21
5:00 AM
Tue, Sep 21
6:00 AM
Tue, Sep 21
7:00 AM
Tue, Sep 21
8:00 AM
Tue, Sep 21
9:00 AM
Tue, Sep 21
10:00 AM
Tue, Sep 21
11:00 AM
Tue, Sep 21
12:00 PM
Tue, Sep 21
1:00 PM
Tue, Sep 21
2:00 PM
Tue, Sep 21
3:00 PM
Tue, Sep 21
4:00 PM
Tue, Sep 21
5:00 PM
Tue, Sep 21
6:00 PM
Tue, Sep 21
7:00 PM
Tue, Sep 21
8:00 PM
Tue, Sep 21
9:00 PM
Tue, Sep 21
10:00 PM
Tue, Sep 21
11:00 PM
Wed, Sep 22
12:00 AM
Wed, Sep 22
1:00 AM
Wed, Sep 22
2:00 AM
Wed, Sep 22
3:00 AM
Wed, Sep 22
4:00 AM
Wed, Sep 22
5:00 AM
Wed, Sep 22
6:00 AM
Wed, Sep 22
7:00 AM
Wed, Sep 22
8:00 AM
Wed, Sep 22
9:00 AM
Wed, Sep 22
10:00 AM
Wed, Sep 22
11:00 AM
Wed, Sep 22
12:00 PM
Wed, Sep 22
1:00 PM
Wed, Sep 22
2:00 PM
Wed, Sep 22
3:00 PM
Condition
Clear

Clear

Clear

Clear

Clear

Clouds

Clear

Clouds

Clouds

Clouds

Clouds

Clouds

Clouds

Clouds

Clouds

Clouds

Clouds

Clouds

Clouds

Clouds

Clouds

Clouds

Clouds

Clouds

Clouds

Clouds

Clouds

Clouds

Clouds

Clouds

Clouds

Clouds

Rain

Rain

Rain

Rain

Clouds

Clouds

Rain

Clouds

Clouds

Clouds

Clouds

Clouds

Clouds

Rain

Rain

Rain
Temperature 74°F74°F73°F71°F70°F68°F67°F66°F66°F65°F65°F65°F64°F64°F64°F64°F65°F68°F68°F68°F69°F72°F74°F75°F74°F75°F74°F72°F72°F71°F70°F71°F70°F70°F70°F70°F70°F70°F70°F70°F71°F73°F75°F77°F79°F79°F78°F78°F
Feels Like 74°F73°F73°F71°F69°F67°F66°F66°F65°F65°F64°F64°F64°F64°F63°F63°F65°F67°F68°F68°F69°F72°F74°F75°F74°F75°F74°F72°F72°F71°F71°F71°F71°F71°F71°F71°F71°F71°F72°F71°F72°F74°F76°F78°F79°F79°F79°F78°F
Cloudiness 6%7%9%9%8%11%10%12%29%41%50%45%49%44%43%45%41%85%92%95%96%97%97%92%96%97%98%98%98%100%95%97%98%98%98%100%100%100%100%100%100%100%100%100%100%100%100%100%
Visibility 6 mi6 mi6 mi6 mi6 mi6 mi6 mi6 mi6 mi6 mi6 mi6 mi6 mi6 mi6 mi6 mi6 mi6 mi6 mi6 mi6 mi6 mi6 mi6 mi6 mi6 mi6 mi6 mi6 mi6 mi6 mi6 mi6 mi6 mi6 mi6 mi6 mi6 mi6 mi6 mi6 mi6 mi6 mi6 mi6 mi6 mi6 mi6 mi
Precipitation 0%0%0%0%0%0%0%0%0%0%0%0%0%0%0%0%0%0%2%4%4%4%0%17%21%13%13%5%4%0%0%13%31%33%39%22%12%8%20%12%8%26%22%30%30%30%58%88%
Humidity 54%53%53%54%56%59%61%64%66%67%68%70%72%74%73%72%69%65%66%72%76%70%64%60%62%60%62%66%68%74%79%81%85%90%93%95%96%96%94%93%90%88%80%70%66%65%70%71%
Dew Point 56°F56°F55°F54°F53°F52°F53°F53°F54°F54°F54°F54°F55°F55°F54°F54°F54°F55°F56°F58°F60°F61°F61°F60°F60°F60°F60°F60°F60°F62°F63°F64°F65°F66°F68°F68°F69°F69°F68°F68°F68°F69°F68°F66°F66°F66°F67°F67°F
Pressure 30.33"30.33"30.33"30.33"30.36"30.39"30.39"30.39"30.39"30.39"30.39"30.36"30.36"30.36"30.36"30.36"30.39"30.39"30.39"30.36"30.36"30.33"30.33"30.3"30.3"30.27"30.27"30.27"30.27"30.27"30.27"30.24"30.21"30.18"30.18"30.15"30.15"30.12"30.12"30.12"30.12"30.09"30.09"30.06"30.06"30.03"30.03"30"
Wind Speed 9.9 mph9.7 mph9.8 mph10 mph9.4 mph8.4 mph7.2 mph6.8 mph6.9 mph6.6 mph6.6 mph7 mph6 mph6.6 mph6.9 mph6.8 mph5.6 mph4.8 mph6.5 mph10.4 mph10.7 mph9.1 mph6.9 mph9.9 mph9.4 mph9.7 mph9 mph8.5 mph7.4 mph7.8 mph8.8 mph8.4 mph8.4 mph8.4 mph7.6 mph6.4 mph5.6 mph5.4 mph6 mph7 mph8.3 mph9.8 mph10.7 mph13.1 mph16.1 mph17.8 mph17.4 mph18.4 mph
Wind
Direction
86°
E
99°
E
120°
ESE
127°
SE
132°
SE
133°
SE
133°
SE
130°
SE
122°
ESE
111°
ESE
107°
ESE
109°
ESE
103°
ESE
100°
E
96°
E
89°
E
85°
E
81°
E
79°
E
76°
ENE
78°
ENE
90°
E
108°
ESE
154°
SSE
154°
SSE
151°
SSE
153°
SSE
138°
SE
121°
ESE
108°
ESE
106°
ESE
104°
ESE
103°
ESE
108°
ESE
127°
SE
139°
SE
149°
SSE
151°
SSE
159°
SSE
150°
SSE
156°
SSE
153°
SSE
160°
SSE
167°
SSE
173°
S
174°
S
174°
S
171°
S

Daily Forecast

Date High Low Precip. Humidity
Today
Sep 20

Clear
74 °F
61 °F
0%
57%
Tuesday
Sep 21

Clouds
75 °F
64 °F
13%
64%
Wednesday
Sep 22

Rain
77 °F
70 °F
90%
81%
Thursday
Sep 23

Rain
73 °F
62 °F
100%
90%
Friday
Sep 24

Rain
72 °F
59 °F
100%
62%
Saturday
Sep 25

Clear
71 °F
56 °F
0%
50%
Sunday
Sep 26

Rain
70 °F
60 °F
98%
53%
Monday
Sep 27

Clear
70 °F
56 °F
0%
56%
Tuesday
Sep 28

Rain
72 °F
61 °F
100%
70%
Wednesday
Sep 29

Rain
65 °F
59 °F
81%
74%
Thursday
Sep 30

Rain
64 °F
58 °F
100%
95%
Friday
Oct 1

Clouds
71 °F
56 °F
29%
79%
Saturday
Oct 2

Clouds
70 °F
57 °F
0%
50%
Sunday
Oct 3

Clouds
69 °F
61 °F
0%
54%
Monday
Oct 4

Rain
65 °F
59 °F
89%
69%
Tuesday
Oct 5

Rain
63 °F
59 °F
100%
77%

Temperature 8-14 Day Outlook



Precipitation 8-14 Day Outlook




Quick Links
Greenwich News
Greenwich Photos
Greenwich Videos




About Us
Contact Us
Site Map
Search Site
Advertise With Us
   
Greenwich.USCoast.info
THE GREENWICH WEBSITE

Copyright 2021, Coastal Town
Privacy    |    Legal